Time,TemperatureF,DewpointF,PressureIn,WindDirection,WindDirectionDegrees,WindSpeedMPH,WindSpeedGustMPH,Humidity,HourlyPrecipIn,Conditions,Clouds,dailyrainin,SoftwareType,DateUTC
2013-02-11 00:10:00,28.0,21.1,30.07,West,277,4.0,4.0,75,0.00,,,0.00,Wunderground v.1.15,2013-02-11 06:10:00,
2013-02-11 00:20:00,27.5,21.2,30.07,West,279,5.0,5.0,77,0.00,,,0.00,Wunderground v.1.15,2013-02-11 06:20:00,
2013-02-11 00:30:00,27.4,21.1,30.07,West,279,5.0,5.0,77,0.00,,,0.00,Wunderground v.1.15,2013-02-11 06:30:00,
2013-02-11 00:40:00,27.5,21.5,30.07,West,274,6.0,8.0,78,0.00,,,0.00,Wunderground v.1.15,2013-02-11 06:40:00,
2013-02-11 00:50:00,27.8,21.5,30.07,WNW,293,6.0,6.0,77,0.00,,,0.00,Wunderground v.1.15,2013-02-11 06:50:00,
2013-02-11 01:00:00,27.6,21.6,30.08,West,273,6.0,7.0,78,0.00,,,0.00,Wunderground v.1.15,2013-02-11 07:00:00,
2013-02-11 01:10:00,27.7,21.7,30.08,West,281,5.0,5.0,78,0.00,,,0.00,Wunderground v.1.15,2013-02-11 07:10:00,
2013-02-11 01:20:00,28.1,22.1,30.08,WNW,298,7.0,8.0,78,0.00,,,0.00,Wunderground v.1.15,2013-02-11 07:20:00,
2013-02-11 01:30:00,28.4,22.1,30.08,WNW,293,8.0,9.0,77,0.00,,,0.00,Wunderground v.1.15,2013-02-11 07:30:00,
2013-02-11 01:40:00,28.5,22.2,30.08,West,278,8.0,8.0,77,0.00,,,0.00,Wunderground v.1.15,2013-02-11 07:40:00,
2013-02-11 01:50:00,28.4,22.1,30.09,West,281,7.0,7.0,77,0.00,,,0.00,Wunderground v.1.15,2013-02-11 07:50:00,
2013-02-11 02:00:00,28.5,21.9,30.10,West,268,8.0,8.0,76,0.00,,,0.00,Wunderground v.1.15,2013-02-11 08:00:00,
2013-02-11 02:10:00,28.4,21.8,30.11,West,276,6.0,6.0,76,0.00,,,0.00,Wunderground v.1.15,2013-02-11 08:10:00,
2013-02-11 02:20:00,28.0,21.7,30.12,West,264,6.0,6.0,77,0.00,,,0.00,Wunderground v.1.15,2013-02-11 08:20:00,
2013-02-11 02:30:00,28.0,21.4,30.12,West,281,7.0,7.0,76,0.00,,,0.00,Wunderground v.1.15,2013-02-11 08:30:00,
2013-02-11 02:40:00,27.7,21.1,30.12,WNW,287,6.0,6.0,76,0.00,,,0.00,Wunderground v.1.15,2013-02-11 08:40:00,
2013-02-11 02:50:00,27.9,21.0,30.12,WNW,290,7.0,7.0,75,0.00,,,0.00,Wunderground v.1.15,2013-02-11 08:50:00,
2013-02-11 03:00:00,27.9,21.0,30.12,West,274,8.0,8.0,75,0.00,,,0.00,Wunderground v.1.15,2013-02-11 09:00:00,
2013-02-11 03:10:00,27.5,20.6,30.12,NW,304,7.0,7.0,75,0.00,,,0.00,Wunderground v.1.15,2013-02-11 09:10:00,
2013-02-11 03:20:00,27.1,20.5,30.13,WNW,287,6.0,6.0,76,0.00,,,0.00,Wunderground v.1.15,2013-02-11 09:20:00,
2013-02-11 03:30:00,26.6,20.1,30.14,West,276,4.0,6.0,76,0.00,,,0.00,Wunderground v.1.15,2013-02-11 09:30:00,
2013-02-11 03:40:00,26.9,20.0,30.14,WNW,283,5.0,5.0,75,0.00,,,0.00,Wunderground v.1.15,2013-02-11 09:40:00,
2013-02-11 03:50:00,26.8,19.9,30.14,West,269,5.0,5.0,75,0.00,,,0.00,Wunderground v.1.15,2013-02-11 09:50:00,
2013-02-11 04:00:00,26.1,19.6,30.15,West,266,2.0,2.0,76,0.00,,,0.00,Wunderground v.1.15,2013-02-11 10:00:00,
2013-02-11 04:10:00,25.6,19.7,30.15,West,274,2.0,2.0,78,0.00,,,0.00,Wunderground v.1.15,2013-02-11 10:10:00,
2013-02-11 04:20:00,24.9,19.3,30.15,West,266,2.0,2.0,79,0.00,,,0.00,Wunderground v.1.15,2013-02-11 10:20:00,
2013-02-11 04:30:00,24.4,19.1,30.15,West,280,2.0,2.0,80,0.00,,,0.00,Wunderground v.1.15,2013-02-11 10:30:00,
2013-02-11 04:40:00,23.7,18.7,30.15,West,273,3.0,4.0,81,0.00,,,0.00,Wunderground v.1.15,2013-02-11 10:40:00,
2013-02-11 04:50:00,23.4,18.7,30.16,WNW,285,4.0,4.0,82,0.00,,,0.00,Wunderground v.1.15,2013-02-11 10:50:00,
2013-02-11 05:00:00,23.1,18.7,30.16,WNW,292,3.0,3.0,83,0.00,,,0.00,Wunderground v.1.15,2013-02-11 11:00:00,
2013-02-11 05:10:00,22.9,18.5,30.17,WNW,285,3.0,3.0,83,0.00,,,0.00,Wunderground v.1.15,2013-02-11 11:10:00,
2013-02-11 05:20:00,22.9,18.2,30.17,WNW,288,4.0,4.0,82,0.00,,,0.00,Wunderground v.1.15,2013-02-11 11:20:00,
2013-02-11 05:30:00,22.6,17.9,30.18,West,271,3.0,3.0,82,0.00,,,0.00,Wunderground v.1.15,2013-02-11 11:30:00,
2013-02-11 05:40:00,22.9,17.9,30.18,WNW,286,3.0,3.0,81,0.00,,,0.00,Wunderground v.1.15,2013-02-11 11:40:00,
2013-02-11 05:50:00,23.4,18.1,30.18,West,276,4.0,4.0,80,0.00,,,0.00,Wunderground v.1.15,2013-02-11 11:50:00,
2013-02-11 06:00:00,23.2,17.9,30.19,West,281,4.0,4.0,80,0.00,,,0.00,Wunderground v.1.15,2013-02-11 12:00:00,
2013-02-11 06:10:00,23.5,17.9,30.19,WNW,286,4.0,4.0,79,0.00,,,0.00,Wunderground v.1.15,2013-02-11 12:10:00,
2013-02-11 06:20:00,23.2,17.7,30.19,WNW,283,4.0,4.0,79,0.00,,,0.00,Wunderground v.1.15,2013-02-11 12:20:00,
2013-02-11 06:30:00,22.9,17.4,30.19,WNW,288,4.0,6.0,79,0.00,,,0.00,Wunderground v.1.15,2013-02-11 12:30:00,
2013-02-11 06:40:00,23.4,17.6,30.19,WNW,293,6.0,7.0,78,0.00,,,0.00,Wunderground v.1.15,2013-02-11 12:40:00,
2013-02-11 06:50:00,23.2,17.4,30.19,West,281,6.0,6.0,78,0.00,,,0.00,Wunderground v.1.15,2013-02-11 12:50:00,
2013-02-11 07:00:00,23.0,17.2,30.19,WNW,291,6.0,8.0,78,0.00,,,0.00,Wunderground v.1.15,2013-02-11 13:00:00,
2013-02-11 07:10:00,22.6,17.1,30.20,WNW,286,5.0,5.0,79,0.00,,,0.00,Wunderground v.1.15,2013-02-11 13:10:00,
2013-02-11 07:20:00,22.6,17.1,30.20,WNW,295,5.0,5.0,79,0.00,,,0.00,Wunderground v.1.15,2013-02-11 13:20:00,
2013-02-11 07:30:00,22.6,16.8,30.20,WNW,291,6.0,6.0,78,0.00,,,0.00,Wunderground v.1.15,2013-02-11 13:30:00,
2013-02-11 07:40:00,22.6,16.8,30.21,WNW,295,5.0,5.0,78,0.00,,,0.00,Wunderground v.1.15,2013-02-11 13:40:00,
2013-02-11 07:50:00,23.0,16.9,30.21,WNW,298,6.0,8.0,77,0.00,,,0.00,Wunderground v.1.15,2013-02-11 13:50:00,
2013-02-11 08:00:00,23.3,17.5,30.21,WNW,298,6.0,7.0,78,0.00,,,0.00,Wunderground v.1.15,2013-02-11 14:00:00,
2013-02-11 08:10:00,23.8,17.9,30.22,WNW,288,6.0,8.0,78,0.00,,,0.00,Wunderground v.1.15,2013-02-11 14:10:00,
2013-02-11 08:20:00,24.0,18.1,30.23,WNW,295,5.0,5.0,78,0.00,,,0.00,Wunderground v.1.15,2013-02-11 14:20:00,
2013-02-11 08:30:00,24.2,18.3,30.23,NW,307,5.0,5.0,78,0.00,,,0.00,Wunderground v.1.15,2013-02-11 14:30:00,
2013-02-11 08:40:00,24.7,18.5,30.24,West,281,5.0,5.0,77,0.00,,,0.00,Wunderground v.1.15,2013-02-11 14:40:00,
2013-02-11 08:50:00,25.2,19.0,30.24,West,267,6.0,6.0,77,0.00,,,0.00,Wunderground v.1.15,2013-02-11 14:50:00,
2013-02-11 09:00:00,26.0,19.5,30.24,WNW,294,7.0,7.0,76,0.00,,,0.00,Wunderground v.1.15,2013-02-11 15:00:00,
2013-02-11 09:10:00,26.7,19.5,30.24,WNW,297,7.0,7.0,74,0.00,,,0.00,Wunderground v.1.15,2013-02-11 15:10:00,
2013-02-11 09:20:00,27.8,19.9,30.25,WNW,294,7.0,8.0,72,0.00,,,0.00,Wunderground v.1.15,2013-02-11 15:20:00,
2013-02-11 09:30:00,28.8,19.2,30.25,WNW,300,7.0,7.0,67,0.00,,,0.00,Wunderground v.1.15,2013-02-11 15:30:00,
2013-02-11 09:40:00,29.2,18.5,30.25,NW,312,8.0,8.0,64,0.00,,,0.00,Wunderground v.1.15,2013-02-11 15:40:00,
2013-02-11 09:50:00,29.8,19.5,30.26,WNW,300,8.0,8.0,65,0.00,,,0.00,Wunderground v.1.15,2013-02-11 15:50:00,
2013-02-11 10:00:00,30.4,19.3,30.26,NNW,331,7.0,7.0,63,0.00,,,0.00,Wunderground v.1.15,2013-02-11 16:00:00,
2013-02-11 10:10:00,31.3,20.2,30.26,NW,311,7.0,7.0,63,0.00,,,0.00,Wunderground v.1.15,2013-02-11 16:10:00,
2013-02-11 10:20:00,31.9,20.0,30.26,WNW,300,6.0,6.0,61,0.00,,,0.00,Wunderground v.1.15,2013-02-11 16:20:00,
2013-02-11 10:30:00,32.8,20.0,30.26,North,349,6.0,10.0,59,0.00,,,0.00,Wunderground v.1.15,2013-02-11 16:30:00,
2013-02-11 10:40:00,32.7,19.5,30.26,NW,305,9.0,9.0,58,0.00,,,0.00,Wunderground v.1.15,2013-02-11 16:40:00,